Weather in Segovia

Spain     40°56′53″N   4°06′59″W
temp.,
°C
wind,
m/s
gust,
m/s
humid.,
%
clouds,
%
prec.,
mm/h
press.,
hPa
HPBL,
m
28 october, thu
thu2823:00+8se22535 0.0 102111
02:00+8sse22540 0.0 101911
05:00+7sse225567 0.0 101812
08:00+7sse2258100 0.0 101812
11:00+13sw234183 0.0 1017378
14:00+16w343024 0.0 10151355
17:00+16wsw4529100 0.0 10131723
20:00+10s335364 0.0 101431
29 october, fri
fri2923:00+9sse2250100 0.0 101421
02:00+10s2247100 0.0 101321
05:00+10s3451100 0.0 101283
08:00+9sse3567100 0.1 1012134
11:00+9sse3375100 0.5 101397
14:00+9s2482100 2.6 1013363
17:00+9sse4588100 3.1 1011270
20:00+8se4591100 5.1 1011192
30 october, sat
sat3023:00+8sse4792100 2.4 1010275
02:00+10s51390100 4.0 1006811
05:00+11s71588100 1.1 1004742
08:00+11sse4890100 3.9 1006236
11:00+12ssw3788100 0.1 1008331
14:00+16wsw51168100 0.5 10081349
17:00+14wsw4781100 0.5 1009672
20:00+12sse1294100 3.6 1010121
31 october, sun
sun3123:00+12se4595100 7.6 1009189
02:00+12sw1198100 25.6 1010125
04:00+11s2295100 17.1 101183
07:00+11wsw1297100 24.3 101183
10:00+13sw41298100 4.8 1012890
13:00+16wsw7137677 5.8 10111297
16:00+14wsw61386100 1.6 10121179
19:00+14wsw51384100 1.8 1013802
31 october, sun
sun3122:00+14wsw71785100 0.5 10131299
01:00+14wsw71587100 0.6 10121121
04:00+14wsw81884100 0.1 10111271
07:00+14wsw112280100 0.4 10101496
10:00+10nne2397100 12.4 1014176
13:00+10w3998100 16.3 1016750
16:00+10wnw4894100 0.4 1016887
19:00+9w2487100 0.8 1017156